Home > Weather > Cleveland > Past weeks

Flag for U.S.A. Weather for the Past 2 Weeks in Cleveland, Tennessee, U.S.A.

Now
40 °F

Partly cloudy.


Feels Like: 40 °F
Forecast: 28 / 52 °F
Wind: No wind

Location: Lovell Field

Current Time: Feb 6, 2016 at 11:45:41 PM

Latest Report: Feb 6, 2016 at 9:53 PM


Visibility: 10 mi

Pressure: 30.28 "Hg

Humidity: 45%

Dew point: 20 °F

Location of ClevelandLocation

Historic Weather in Cleveland — Graph

°F

Cleveland Temperature Yesterday

Maximum temperature yesterday: 47 °F (at 2:53 PM)
Minimum temperature yesterday: 29 °F (at 6:53 AM)
Average temperature yesterday: 37 °F

High & Low Weather Summary for the Past Weeks

 TemperatureHumidityPressure
High75 °F (Feb 2, 2:53 PM)96% (Jan 22, 9:53 PM)30.48 "Hg (Jan 22, 9:53 PM)
Low22 °F (Jan 24, 4:53 AM)23% (Feb 6, 4:53 PM)29.77 "Hg (Feb 3, 2:53 AM)
Average45 °F66%30.09 "Hg
* Reported Jan 22 9:53 PM — Feb 6 9:53 PM, Cleveland, Weather by CustomWeather, © 2016

Note: Actual official high and low records may vary slightly from our data, if they occured in-between our weather recording intervals... More about our weather records

Advertising

Cleveland Weather History for the Previous 24 Hours

 ConditionsComfort  
Time TempWeatherWind HumidityBarometerVisibility
9:53 PM
Sat, Feb 6
40 °FPartly cloudy.No wind45%30.28 "Hg10 mi
8:53 PM42 °FPartly cloudy.6 mph38%30.29 "Hg10 mi
7:53 PM42 °FPassing clouds.6 mph41%30.28 "Hg10 mi
6:53 PM45 °FPartly cloudy.8 mph33%30.28 "Hg10 mi
5:53 PM47 °FBroken clouds.10 mph29%30.29 "Hg10 mi
4:53 PM49 °FBroken clouds.12 mph23%30.30 "Hg10 mi
3:53 PM50 °FBroken clouds.10 mph24%30.31 "Hg10 mi
2:53 PM50 °FPartly sunny.No wind25%30.32 "Hg10 mi
1:53 PM49 °FPartly sunny.No wind29%30.34 "Hg10 mi
12:53 PM45 °FPartly sunny.No wind31%30.38 "Hg10 mi
11:53 AM43 °FPartly sunny.No wind47%30.41 "Hg10 mi
10:53 AM39 °FBroken clouds.No wind60%30.42 "Hg10 mi
9:53 AM35 °FScattered clouds.No wind70%30.43 "Hg10 mi
8:53 AM31 °FBroken clouds.No wind85%30.43 "Hg10 mi
7:53 AM29 °FBroken clouds.3 mph85%30.42 "Hg10 mi
6:53 AM29 °FPartly cloudy.No wind85%30.40 "Hg10 mi
5:53 AM30 °FPassing clouds.No wind79%30.39 "Hg10 mi
4:53 AM29 °FClear.3 mph82%30.38 "Hg10 mi
3:53 AM30 °FClear.No wind79%30.38 "Hg10 mi
2:53 AM30 °FClear.No wind82%30.38 "Hg10 mi
1:53 AM31 °FClear.3 mph79%30.41 "Hg10 mi
12:53 AM33 °FClear.No wind78%30.41 "Hg10 mi
11:53 PM
Fri, Feb 5
34 °FPassing clouds.No wind61%30.41 "Hg10 mi
Weather by CustomWeather, © 2016

See weather overviewHow to use our weather pages